User: anonymous   Login
Location: Unspecified
(0.0000°N, 0.0000°E)
Time: 10:55:23
(UTC+00:00)
Language:

OV2-5 - Orbit

View from above orbital plane
View from above orbital plane
View from above satellite
View from above satellite

Ground track
Ground track

The orbit data is extracted from the following two-line orbital elements,

1  3428U 68081A   19023.45091146 -.00000185  00000-0  00000+0 0  9999
2  3428   4.7536 308.7409 0090448 338.9979  55.8814  1.01560955 93957
Epoch (UTC): 23 January 2019 10:49:18
Eccentricity: 0.0090448
inclination: 4.7536°
perigee height: 35050 km
apogee height: 35807 km
right ascension of ascending node: 308.7409°
argument of perigee: 338.9979°
revolutions per day: 1.01560955
mean anomaly at epoch: 55.8814°
orbit number at epoch: 9395

The dashed part of the orbit path shows where the satellite is in the earth's shadow,  

DLR